Change the Weather History Date:

Monday, April 29, 2013

  Actual Average Record
Temperature  
Mean Temperature 56 °F 53 °F  
Max Temperature 72 °F 67 °F 89 °F (1987)
Min Temperature 40 °F 38 °F 19 °F (1907)
Degree Days  
Heating Degree Days 9 13  
Month to date heating degree days 462 465  
Cooling Degree Days 0 0  
Month to date cooling degree days 0 0  
Growing Degree Days 6 (Base 50)    
Moisture  
Dew Point 28 °F    
Average Humidity 32    
Maximum Humidity 57    
Minimum Humidity 19    
Precipitation  
Precipitation 0.00 in 0.04 in 0.58 in (1942)
Month to date precipitation 0.42 1.00  
Sea Level Pressure  
Sea Level Pressure 29.87 in    
Wind  
Wind Speed 15 mph (WNW)    
Max Wind Speed 28 mph    
Max Gust Speed 39 mph    
Visibility 10 miles    
Events      
T = Trace of Precipitation, MM = Missing Value Source: NWS Daily Summary

Daily Weather History Graph

Daily Weather History Graph

Search for Another Location

Airport or City:

Trip Planner

Search our weather history database for the weather conditions in past years. The results will help you decide how hot, cold, wet, or windy it might be!

Date:

Astronomy

Apr. 29, 2013 Rise Set
Actual Time 6:39 AM MDT 8:42 PM MDT
Civil Twilight 6:08 AM MDT 9:13 PM MDT
Nautical Twilight 5:30 AM MDT 9:51 PM MDT
Astronomical Twilight 4:49 AM MDT 10:33 PM MDT
Moon 12:18 AM MDT (4/29) 10:02 AM MDT (4/29)
Length of Visible Light 15h 05m
Length of Day
14h 03m
Waning Gibbous, 79% of the Moon is Illuminated
Apr 29
Waning Gibbous
May 2
Last Quarter
May 9
New
May 17
First Quarter
May 24
Full

Hourly Weather History & Observations

Time (MDT) Temp. Windchill Dew Point Humidity Pressure Visibility Wind Dir Wind Speed Gust Speed Precip Events Conditions
12:58 AM 51.1 °F - 29.1 °F 43% 29.97 in 10.0 mi WNW 10.4 mph - N/A   Clear
1:58 AM 50.4 °F - 27.0 °F 40% 29.96 in 10.0 mi NW 10.4 mph - N/A   Clear
2:58 AM 48.7 °F - 25.7 °F 41% 29.95 in 10.0 mi NNW 6.9 mph - N/A   Clear
3:58 AM 40.5 °F - 26.1 °F 57% 29.95 in 10.0 mi WSW 2.3 mph - N/A   Clear
4:58 AM 42.6 °F 39.9 °F 25.7 °F 51% 29.94 in 10.0 mi West 4.6 mph - N/A   Clear
5:58 AM 45.5 °F 41.3 °F 27.5 °F 49% 29.93 in 10.0 mi NW 8.1 mph - N/A   Clear
6:58 AM 46.2 °F 44.1 °F 27.7 °F 48% 29.92 in 10.0 mi NNW 4.6 mph - N/A   Clear
7:58 AM 45.3 °F 42.3 °F 28.9 °F 53% 29.93 in 10.0 mi NW 5.8 mph - N/A   Clear
8:58 AM 57.4 °F - 27.5 °F 32% 29.92 in 10.0 mi West 10.4 mph - N/A   Mostly Cloudy
9:33 AM 60.8 °F - 33.8 °F 36% 29.94 in 10.0 mi West 20.7 mph - N/A   Mostly Cloudy
9:58 AM 60.6 °F - 34.5 °F 38% 29.91 in 10.0 mi West 21.9 mph 26.5 mph N/A   Scattered Clouds
10:48 AM 60.8 °F - 35.6 °F 39% 29.94 in 10.0 mi WNW 19.6 mph - N/A   Mostly Cloudy
10:58 AM 60.8 °F - 34.0 °F 37% 29.92 in 10.0 mi WNW 18.4 mph 26.5 mph N/A   Mostly Cloudy
11:13 AM 60.8 °F - 33.8 °F 36% 29.94 in 10.0 mi WNW 24.2 mph 31.1 mph N/A   Mostly Cloudy
11:58 AM 64.2 °F - 32.9 °F 31% 29.90 in 10.0 mi West 25.3 mph 33.4 mph N/A   Partly Cloudy
12:58 PM 67.3 °F - 30.7 °F 26% 29.86 in 10.0 mi WNW 24.2 mph 33.4 mph N/A   Scattered Clouds
1:58 PM 69.4 °F - 30.9 °F 24% 29.83 in 10.0 mi West 18.4 mph 27.6 mph N/A   Scattered Clouds
1:59 PM 69.8 °F - 32.0 °F 25% 29.86 in 10.0 mi West 17.3 mph 27.6 mph N/A   Scattered Clouds
2:19 PM 69.8 °F - 32.0 °F 25% 29.85 in 10.0 mi WNW 19.6 mph 26.5 mph N/A   Mostly Cloudy
2:29 PM 69.8 °F - 32.0 °F 25% 29.84 in 10.0 mi WNW 19.6 mph 28.8 mph N/A   Mostly Cloudy
2:34 PM 69.8 °F - 32.0 °F 25% 29.84 in 10.0 mi WNW 17.3 mph 28.8 mph N/A   Overcast
2:44 PM 69.8 °F - 32.0 °F 25% 29.83 in 10.0 mi WNW 27.6 mph 31.1 mph N/A   Mostly Cloudy
2:58 PM 69.1 °F - 32.4 °F 26% 29.80 in 10.0 mi WNW 21.9 mph 27.6 mph N/A   Scattered Clouds
3:24 PM 71.6 °F - 30.2 °F 22% 29.81 in 10.0 mi WNW 27.6 mph 36.8 mph N/A   Mostly Cloudy
3:58 PM 71.2 °F - 28.6 °F 20% 29.78 in 10.0 mi WNW 20.7 mph 34.5 mph N/A   Partly Cloudy
4:58 PM 70.7 °F - 27.1 °F 20% 29.75 in 10.0 mi WNW 25.3 mph 34.5 mph N/A   Mostly Cloudy
5:58 PM 69.8 °F - 25.5 °F 19% 29.74 in 8.0 mi WNW 23.0 mph 39.1 mph N/A   Mostly Cloudy
6:58 PM 65.8 °F - 28.6 °F 25% 29.74 in 9.0 mi NNW 24.2 mph 29.9 mph N/A   Mostly Cloudy
7:58 PM 63.7 °F - 23.4 °F 22% 29.77 in 10.0 mi NNW 23.0 mph - N/A   Mostly Cloudy
8:58 PM 59.0 °F - 21.4 °F 23% 29.78 in 10.0 mi NNW 20.7 mph - N/A   Scattered Clouds
9:58 PM 54.7 °F - 18.7 °F 24% 29.83 in 10.0 mi NW 20.7 mph - N/A   Clear
10:58 PM 49.1 °F - 15.8 °F 27% 29.86 in 10.0 mi WNW 18.4 mph - N/A   Clear
11:58 PM 47.1 °F - 13.1 °F 25% 29.87 in 10.0 mi WNW 19.6 mph - N/A   Clear